Theta_e
324 323 323 322 323 322 318 318 320 318 317 317 317 317 317 315 314 316 314 314 314 312
320 320 320 319 321 318 318 316 315 316 316 316 316 316 317 314 315 315 314 314 314 313
319 318 319 318 317 317 318 317 316 315 316 315 316 316 316 314 314 314 313 313 313 313
319 318 318 317 317 317 317 315 314 314 314 314 314 314 314 314 313 312 313 314 313 313
317 318 317 316 317 317 315 315 314 314 313 313 312 313 312 312 312 313 312 313 313 313
316 316 315 315 316 316 315 314 314 313 312 311 311 311 312 313 313 313 313 313 312 312
312 313 313 313 313 312 312 312 312 312 311 311 311 311 312 312 312 311 311 311 310 311
309 310 310 310 310 310 310 310 310 310 310 311 311 309 309 308 308 309 308 308 309 311
306 306 306 307 307 308 309 309 309 309 309 310 309 299 298 300 304 306 306 307 308 310
303 303 303 305 306 306 307 308 308 309 310 308 308 297 296 297 303 304 305 305 306 306
302 302 303 304 304 306 306 307 308 308 306 305 302 295 294 294 303 304 304 302 303 303
300 301 302 302 301 302 304 305 305 305 302 302 302 293 294 295 301 302 300 299 300 300
300 301 301 299 300 301 301 301 302 300 299 297 299 293 292 293 297 297 296 297 301 300
300 300 300 299 298 297 297 297 296 297 299 299 296 295 292 291 293 293 294 298 301 303
Wind_Speed
11 7 7 8 7 5 6 7 7 7 7 6 5 5 5 4 5 5 5 7 7 7
4 12 7 8 8 7 8 7 7 7 7 7 6 7 6 5 6 6 6 7 7 8
8 8 8 8 9 9 8 7 7 7 6 6 6 7 7 6 6 8 7 6 8 9
8 7 6 8 7 6 6 6 6 5 5 5 6 6 6 7 7 8 8 8 9 11
8 7 7 7 6 4 5 5 5 5 5 6 7 7 7 8 8 8 10 10 11 13
8 7 7 5 5 4 4 5 5 5 6 7 7 7 7 7 8 9 10 11 13 14
9 7 6 6 5 5 5 5 5 6 6 6 6 6 6 8 9 10 10 12 13 13
8 7 6 5 5 5 5 5 5 5 5 5 4 5 8 9 10 11 13 13 12 11
6 5 5 5 5 4 4 4 4 4 4 4 4 9 9 10 10 12 12 13 12 12
6 5 5 4 4 4 5 5 5 3 3 5 4 9 8 12 10 10 10 11 12 12
6 6 6 5 6 6 5 5 4 4 5 5 4 10 12 16 10 10 9 11 12 11
6 6 6 6 6 6 5 5 5 5 6 7 7 12 14 16 11 10 10 10 11 10
6 6 6 6 6 6 6 5 5 5 6 7 9 12 15 16 9 10 9 9 9 5
6 7 7 6 7 7 7 6 6 6 6 8 10 11 16 18 10 9 9 8 9 9
Wind_Direction
101 108 101 119 119 107 111 106 106 98 92 87 75 57 36 31 4 353 341 337 329 309
137 85 112 122 126 122 117 118 101 87 76 64 49 35 10 2 339 335 327 319 304 298
109 127 144 129 115 115 114 102 87 78 64 51 33 15 357 342 333 322 316 306 307 300
132 130 109 92 91 92 100 95 83 77 54 34 15 1 340 329 323 320 310 310 303 301
121 103 85 88 95 112 105 83 70 52 27 9 359 351 337 326 320 311 315 314 305 301
82 81 77 85 82 82 77 63 52 23 9 356 349 335 324 313 314 313 306 305 304 302
70 71 73 68 69 65 50 34 19 9 357 349 340 325 324 321 319 307 306 304 302 299
75 69 70 63 46 36 26 11 354 353 349 359 335 7 343 331 314 309 307 304 300 302
61 52 38 23 9 4 355 352 342 353 343 336 340 30 1 338 317 307 304 306 311 313
52 43 28 20 16 12 3 351 349 348 346 346 347 16 349 340 313 310 312 308 314 322
55 49 41 32 27 18 1 347 347 12 10 351 24 8 351 341 320 311 318 319 312 319
44 40 34 30 22 9 356 6 352 7 357 359 355 18 354 345 329 329 328 321 317 315
51 47 43 29 25 15 3 3 351 4 3 25 0 33 358 355 336 337 327 322 315 289
57 59 46 48 38 28 29 19 12 12 14 17 22 8 357 352 352 340 325 332 343 349